Other Public Products
Issued by NWS Charleston, SC

Current Version | Previous Version | Graphics & Text | Print | Product List | Glossary On
Versions: 1 2 3 4 5 6 7 8 9 10 11 12 13 14 15 16 17 18 19 20 21 22 23 24 25 26 27 28 29 30 31 32 33 34 35 36 37 38 39 40 41 42 43 44 45 46 47 48 49 50
000 FPUS82 KCHS 191124 OPUCHS TEST...KCHS/KSAV Gateway Observations...TEST National Weather Service Charleston SC 700 AM EDT TUE SEP 19 2017 NOTE: "fair" indicates few or no clouds below 12,000 feet with no significant weather and/or obstructions to visibility. SCZ050-WAZ558-NCZ071-TXZ119-213-PAZ071-DCZ001-FLZ074-172-MI076- NYZ176-178-MAZ016-IL014-TNZ027-NJZ106-GAZ044-MD014-191200- ...Gateway Observations for Charleston International... CITY SKY/WX TMP DP RH WIND PRES REMARKS Chas Airport PTCLDY 68 67 96 CALM 29.97R Seattle CLOUDY 50 47 89 S9 29.69S Charlotte PTCLDY 65 65 100 NW5 30.03R Dallas DFW PTCLDY 77 74 90 S12 29.89S Dallas Love PTCLDY 75 71 87 S12 29.91R Philladelphia MOCLDY 71 66 84 N15 29.98F Wash National CLOUDY 69 66 90 N14 30.00S Baltimore MOCLDY 69 66 90 N5 29.99S Miami PTCLDY 81 78 91 W3 29.91S Detroit CLOUDY 64 61 90 NE6 30.00S Newark CLOUDY 70 66 87 N14 30.01F Laguardia CLOUDY 71 67 87 NE15G22 30.01S J F K CLOUDY 70 66 87 NE17 30.01S Boston Logan CLOUDY 64 64 100 N12 30.12S FOG Ft. Lauderdale PTCLDY 80 77 90 E6 29.90S Chicago O`Hare CLOUDY 66 64 93 N6 29.94R Chicago Midway CLOUDY 67 65 93 N5 29.94R FOG Houston Bush PTCLDY 75 73 93 CALM 29.95R Houston Hobby PTCLDY 78 75 90 S6 29.94S Nashville PTCLDY 69 66 90 CALM 29.98R Atlanta PTCLDY 66 64 93 NW6 30.01R $$ GAZ044-118-TXZ119-213-NCZ071-DCZ001-MDZ014-506-PAZ021-071-NJZ106- NYZ176-178-MAZ106-OHZ011-021-055-MIZ076-KYZ091-ILZ014-INZ047- MNZ060-ONZ431-191200- ...Gateway Observations for Savannah International... CITY SKY/WX TMP DP RH WIND PRES REMARKS Savannah Arpt MOCLDY 71 69 93 CALM 29.99R Atlanta PTCLDY 66 64 93 NW6 30.01R Charlotte PTCLDY 65 65 100 NW5 30.03R Dallas DFW PTCLDY 77 74 90 S12 29.89S Houston Bush PTCLDY 75 73 93 CALM 29.95R Wash National CLOUDY 69 66 90 N14 30.00S Wash Dulles MOCLDY 67 65 93 N10 30.01S Baltimore MOCLDY 69 66 90 N5 29.99S Philadelphia MOCLDY 71 66 84 N15 29.98F Newark CLOUDY 70 66 87 N14 30.01F Laguardia CLOUDY 71 67 87 NE15G22 30.01S J F K CLOUDY 70 66 87 NE17 30.01S Boston CLOUDY 64 64 100 N12 30.12S FOG Pittsburg CLOUDY 62 62 100 E6 30.04R Akron PTCLDY 65 60 84 SE5 30.02S Cleveland MOCLDY 69 62 78 S7 30.01S Cincinnati CLOUDY 70 67 90 S5 29.96S Columbus CLOUDY 66 65 99 CALM 29.98S Detroit CLOUDY 64 61 90 NE6 30.00S Chicago O`Hare CLOUDY 66 64 93 N6 29.94R Minneapolis CLOUDY 60 58 92 SE7 29.92S Indianapolis LGT RAIN 68 67 96 SW3 29.94F Toronto Canada MOCLDY 66 64 94 N9 30.02S $$

USA.gov is the U.S. government's official web portal to all federal, state and local government web resources and services.